Lid_Strength_Index
12 14 16 14 13 13 15 15 16 14 12 14 14 14 13 11 11 11 13 13 12 12 12 12 12 12 12 12 12 11 11 10 9 8 7 6 6 5 5 3 2 2 3 3
14 16 13 12 12 13 14 16 16 14 12 14 14 14 12 11 11 12 13 13 13 13 13 12 12 13 13 13 12 12 12 11 10 9 8 8 8 8 7 5 4 3 3 4
15 13 11 12 13 14 15 16 16 15 14 14 15 16 13 12 12 12 12 12 12 13 13 13 13 13 13 13 13 12 12 12 12 11 10 9 9 9 9 9 7 6 5 4
14 12 12 13 13 13 16 13 14 14 17 18 15 20 15 13 14 13 13 13 13 13 12 13 13 13 14 14 13 12 12 12 12 12 12 13 12 12 11 11 10 10 8 7
13 14 14 14 13 13 14 13 15 15 17 17 17 18 16 14 15 14 14 13 12 12 12 12 12 12 12 13 14 14 12 12 12 12 12 13 13 13 13 12 12 12 11 9
13 13 13 13 13 13 13 14 15 16 16 20 16 17 17 16 14 14 13 13 12 12 12 12 11 11 12 13 14 14 14 14 12 12 12 13 14 14 14 13 13 13 12 12
14 13 13 12 14 13 14 16 19 20 21 20 15 17 15 14 12 12 13 13 13 13 13 13 12 13 13 13 14 14 14 14 14 13 13 14 14 14 14 14 14 14 14 13
16 17 13 13 13 14 14 14 18 22 22 21 16 18 15 13 13 13 12 13 13 13 12 12 13 13 13 13 13 14 14 14 13 13 14 14 14 14 14 15 15 15 14 14
15 15 13 12 12 11 14 15 13 16 20 20 17 14 13 12 13 13 13 13 13 12 12 12 12 13 13 13 14 14 14 14 13 13 13 13 14 14 15 15 15 15 15 14
13 16 12 13 12 12 12 10 16 15 22 22 18 16 15 13 14 13 13 13 13 12 12 13 13 13 13 13 13 13 13 14 14 14 13 13 14 14 14 14 15 15 15 15
12 13 14 12 13 13 12 13 12 13 15 20 21 17 11 11 12 13 13 13 13 14 13 13 14 13 13 13 12 13 13 13 13 13 13 13 13 14 14 15 15 15 15 14
10 12 17 14 10 10 10 12 12 17 17 16 16 16 11 11 12 12 12 11 12 12 13 10 11 12 12 12 12 13 13 13 13 13 14 14 14 14 15 15 15 15 16 15
9 13 19 18 14 11 13 12 11 12 14 17 18 17 11 12 12 11 11 11 11 12 12 12 12 13 13 13 13 13 12 12 12 12 14 14 15 15 14 15 14 15 15 15
8 12 16 18 17 13 15 13 13 12 18 17 16 14 12 10 10 10 9 9 9 11 12 13 13 13 13 12 12 12 12 12 12 12 13 14 14 14 14 15 16 15 14 15
10 16 14 13 12 13 13 14 14 14 13 16 14 14 12 10 13 13 13 10 10 11 12 13 13 13 13 13 12 12 12 12 12 12 13 13 13 13 13 13 13 14 13 13
10 17 15 18 13 13 15 14 14 14 14 14 13 14 10 14 13 12 13 12 13 13 12 13 12 12 12 12 12 11 11 11 11 12 12 11 11 11 12 12 12 12 12 13
14 17 21 22 15 16 22 17 15 14 13 14 17 14 15 14 13 14 14 14 13 13 12 12 12 11 11 11 10 10 10 11 12 13 12 12 12 12 11 11 12 12 13 13
14 18 21 24 23 28 17 15 14 15 15 16 15 17 16 14 14 13 13 13 12 11 11 10 10 10 10 10 10 10 10 12 11 12 13 13 12 13 13 13 14 14 14 14
12 14 22 23 28 20 17 15 15 15 17 15 16 15 14 14 15 15 12 12 11 11 10 10 9 9 10 11 11 11 12 12 12 13 13 13 14 16 16 17 17 16 17 17
13 13 16 28 25 27 18 14 13 14 20 17 17 16 16 14 19 17 11 10 9 9 9 9 9 10 11 13 12 13 13 15 15 14 14 15 16 18 18 18 19 19 19 19
23 25 19 19 24 22 16 15 13 23 19 18 16 15 14 15 14 11 10 10 9 9 9 10 11 12 13 13 13 15 15 16 15 16 16 17 18 19 20 20 20 21 21 21
19 22 25 27 29 25 14 15 17 15 13 13 13 12 12 11 10 10 9 10 10 10 11 11 12 13 13 14 15 16 16 15 17 18 19 20 21 21 20 22 21 22 22 23
20 17 21 19 20 14 13 13 11 11 12 11 11 10 9 10 10 9 10 10 10 10 11 12 14 15 14 16 17 18 17 17 18 22 23 22 21 21 20 22 22 23 23 23
16 15 17 18 15 14 12 11 10 9 9 9 9 9 9 10 10 10 10 10 11 13 14 15 17 18 19 18 17 19 19 18 24 25 22 21 21 21 22 21 22 23 24 24
15 15 17 17 13 13 12 10 9 9 8 9 9 9 9 9 10 10 10 11 12 13 15 16 18 18 18 18 19 21 19 22 23 21 20 20 21 22 22 21 22 22 22 21
12 14 15 16 11 11 10 9 8 8 8 9 9 10 9 10 10 11 12 13 13 15 16 17 18 19 20 22 21 21 23 25 24 21 20 21 21 22 22 22 22 18 17 16